EW1736 Weather Reports


Display with metric or nautical units.
time (UTC)temp
F
wind
direction
speed
MPH
gust
MPH
rain 1hr
in
rain 24hr
in
rain mn
in
humidity
%
barometer
mb
20260506145855 65 26 6.0 10.0 0.00 0.16 0.00 94 1026.7
20260506144350 65 50 8.0 13.0 0.00 0.17 0.00 94 1027.0
20260506142850 65 15 10.0 13.0 0.00 0.17 0.00 94 1027.2
20260506141346 65 46 9.0 11.0 0.00 0.18 0.00 94 1027.5
20260506135846 65 15 8.0 11.0 0.00 0.18 0.00 94 1027.7
20260506135037 65 46 8.0 13.0 0.00 0.18 0.00 93 1027.8
20260506132837 65 22 10.0 13.0 0.00 0.18 0.00 93 1027.9
20260506131338 65 42 10.0 12.0 0.00 0.18 0.00 93 1028.0
20260506125834 65 32 11.0 13.0 0.00 0.18 0.00 93 1027.9
20260506124334 65 36 9.0 11.0 0.00 0.18 0.00 94 1027.8
20260506122830 65 34 8.0 12.0 0.00 0.18 0.00 94 1027.8
20260506121330 65 45 9.0 12.0 0.00 0.18 0.00 94 1028.0
20260506115827 65 38 6.0 9.0 0.00 0.18 0.18 95 1028.1
20260506114322 64 27 4.0 7.0 0.00 0.18 0.18 95 1028.2
20260506112822 64 18 3.0 10.0 0.00 0.18 0.18 95 1028.1
20260506111318 64 42 4.0 8.0 0.00 0.18 0.18 96 1028.0
20260506105820 63 34 5.0 8.0 0.00 0.18 0.18 96 1028.1
20260506104314 63 22 3.0 8.0 0.00 0.18 0.18 96 1028.3
20260506102810 62 85 3.0 7.0 0.00 0.18 0.18 96 1028.3
20260506101311 62 202 1.0 5.0 0.00 0.18 0.18 96 1028.4
20260506095806 62 197 3.0 4.0 0.00 0.18 0.18 96 1028.4
20260506094301 62 210 2.0 5.0 0.00 0.18 0.18 95 1028.6
20260506092802 62 175 3.0 5.0 0.00 0.18 0.18 95 1028.5
20260506092000 62 207 2.0 3.0 0.00 0.18 0.18 95 1028.6
20260506090443 62 227 2.0 3.0 0.02 0.18 0.18 95 1028.6
20260506084244 62 344 2.0 2.0 0.02 0.18 0.18 95 1028.6
20260506082735 63 344 0.0 4.0 0.02 0.18 0.18 95 1028.6
20260506081226 62 25 3.0 17.0 0.02 0.18 0.18 95 1028.8
20260506072707 63 202 3.0 5.0 0.00 0.17 0.17 96 1028.7
20260506071857 63 159 3.0 5.0 0.00 0.17 0.17 95 1028.6
20260506061150 63 117 0.0 0.0 0.00 0.17 0.17 95 1028.4
20260506051138 63 117 2.0 3.0 0.00 0.17 0.17 95 1028.4
20260506044835 63 119 2.0 6.0 0.00 0.17 0.17 95 1028.3
20260506042630 64 59 2.0 8.0 0.00 0.17 0.17 95 1028.4
20260506041125 64 108 3.0 9.0 0.00 0.17 0.17 94 1028.5
20260506035621 64 111 4.0 8.0 0.00 0.17 0.17 94 1028.5
20260506034118 64 125 6.0 9.0 0.00 0.17 0.17 93 1028.6
20260506034037 65 119 3.0 8.0 0.00 0.17 0.17 93 1028.6
20260506031111 64 109 5.0 8.0 0.00 0.17 0.17 92 1028.7
20260506025608 65 110 6.0 8.0 0.00 0.17 0.17 92 1028.5
20260506024109 65 118 3.0 6.0 0.00 0.17 0.17 92 1028.7
20260506022603 65 103 2.0 7.0 0.00 0.17 0.17 92 1028.7
20260506021104 65 99 3.0 7.0 0.00 0.17 0.17 92 1028.6
20260506015600 65 109 3.0 6.0 0.00 0.17 0.17 93 1028.6
20260506014057 65 89 3.0 7.0 0.00 0.17 0.17 93 1028.7
20260506012556 65 118 4.0 9.0 0.00 0.17 0.17 93 1028.6
20260506011754 65 95 2.0 7.0 0.00 0.17 0.17 94 1028.7
20260506005552 65 115 4.0 7.0 0.00 0.17 0.17 94 1028.8
20260506004048 65 91 2.0 7.0 0.00 0.17 0.17 95 1029.3
20260506002544 64 105 4.0 8.0 0.00 0.17 0.17 95 1029.3
20260506001744 64 119 3.0 6.0 0.00 0.17 0.17 95 1029.7
20260505235540 65 121 3.0 7.0 0.00 0.17 0.17 96 1029.8
20260505234039 65 111 2.0 6.0 0.00 0.17 0.17 97 1029.8
20260505232536 64 77 4.0 7.0 0.00 0.17 0.17 97 1030.0
20260505231032 64 153 2.0 5.0 0.00 0.17 0.17 98 1030.2
20260505230244 63 191 2.0 6.0 0.00 0.17 0.17 98 1030.2
20260505224029 62 155 4.0 7.0 0.00 0.17 0.17 97 1030.5
20260505222523 62 194 5.0 7.0 0.00 0.17 0.17 98 1030.4
20260505221024 62 171 4.0 8.0 0.00 0.17 0.17 98 1030.5
20260505215520 62 193 3.0 7.0 0.00 0.17 0.17 98 1030.5
20260505214016 61 195 5.0 8.0 0.00 0.17 0.17 98 1030.5
20260505212512 61 212 3.0 8.0 0.02 0.17 0.17 98 1030.6
20260505211007 61 207 6.0 8.0 0.04 0.17 0.17 98 1030.6
20260505205508 61 221 4.0 5.0 0.04 0.17 0.17 98 1030.6
20260505204003 60 210 2.0 6.0 0.04 0.17 0.17 98 1030.7
20260505202504 60 186 3.0 5.0 0.02 0.14 0.15 97 1030.7
20260505200959 60 165 2.0 4.0 0.00 0.13 0.13 97 1030.5
20260505195455 60 163 2.0 5.0 0.00 0.13 0.13 97 1030.4
20260505194651 60 187 1.0 4.0 0.00 0.13 0.13 97 1030.2
20260505192451 60 152 1.0 4.0 0.00 0.13 0.13 97 1030.1
20260505190947 60 159 2.0 5.0 0.00 0.13 0.13 97 1030.0
20260505185447 60 192 1.0 6.0 0.00 0.13 0.13 97 1030.0
20260505183945 60 205 5.0 7.0 0.01 0.13 0.13 97 1029.9
20260505182442 60 209 3.0 8.0 0.01 0.13 0.13 97 1029.7
20260505180931 60 167 5.0 10.0 0.02 0.13 0.13 97 1029.6
20260505175425 60 214 6.0 9.0 0.04 0.13 0.13 97 1029.9
20260505173925 60 188 2.0 5.0 0.09 0.12 0.12 97 1029.9
20260505172421 60 163 2.0 5.0 0.09 0.12 0.12 96 1029.9
20260505170906 60 192 1.0 5.0 0.09 0.11 0.11 96 1030.0
20260505165407 60 236 3.0 7.0 0.06 0.09 0.09 96 1029.9
20260505163858 60 204 5.0 7.0 0.01 0.03 0.03 96 1029.8
20260505162358 60 196 4.0 7.0 0.00 0.02 0.02 96 1029.8
20260505160854 60 190 5.0 8.0 0.00 0.02 0.02 96 1029.8
20260505152352 60 198 5.0 9.0 0.02 0.02 0.02 95 1030.0
20260505151539 60 159 5.0 7.0 0.02 0.02 0.02 95 1030.2